Regional Weather Roundup
Issued by NWS

Home | Current Version | Previous Version | Graphics & Text | Print | Product List | Glossary On
Versions: 1 2 3 4 5 6 7 8 9 10 11 12 13 14 15 16 17 18 19 20 21 22 23 24 25 26 27 28 29 30 31 32 33 34 35 36 37 38 39 40 41 42 43 44 45 46 47 48 49 50
000
ASUS45 KABQ 230910
RWRNM
NEW MEXICO REGIONAL WEATHER ROUNDUP
NATIONAL WEATHER SERVICE ALBUQUERQUE NM
300 AM MDT SAT MAY 23 2015

NOTE: "FAIR" MEANS FEW OR NO CLOUDS BELOW 12,000 FEET AGL WITH NO
       SIGNIFICANT WEATHER OR OBSTRUCTIONS TO VISION.

      THIS PRODUCT IS RELEASED AS TWO VERSIONS.  ONE VERSION NEAR
      THE TOP OF THE HOUR CONTAINING PRELIMINARY DATA FROM ALBUQUERQUE
      AND OTHER STATIONS.  A FINAL VERSION WITH ADDITIONAL DATA IS
      ISSUED ABOUT 10 MINUTES AFTER THE HOUR.

NMZ501-503-504-510>518-231000-
NORTHWEST PLATEAU/NORTHCENTRAL MOUNTAINS

CITY           SKY/WX    TMP DP  RH WIND       PRES   REMARKS
FARMINGTON     PTCLDY    48  31  51 SW5       30.01S
LOS ALAMOS     PTCLDY    50  48  92 W5        30.05S
SANTA FE       PTCLDY    51  48  89 SE7       30.00R
TAOS           MOCLDY    48  37  66 S7        30.05S
ANGEL FIRE     FAIR      45  39  81 S6        30.10S

$$
NMZ402-403-502-505>509-231000-
WESTCENTRAL MOUNTAINS/SOUTHWEST MOUNTAINS

CITY           SKY/WX    TMP DP  RH WIND       PRES   REMARKS
GALLUP         CLOUDY    43  27  53 CALM      30.06F
GRANTS         MOCLDY    46  30  54 W10       30.06F
SILVER CITY    CLEAR     50  23  34 NW12      30.04S

$$
NMZ407-409-411-412-231000-
SOUTHERN DESERTS

CITY           SKY/WX    TMP DP  RH WIND       PRES   REMARKS
LORDSBURG      FAIR      52  25  35 W3        30.00S
DEMING         CLEAR     52  23  32 S5        29.99S
LAS CRUCES     MOCLDY    60  25  26 CALM      30.00R
HOLLOMAN AFB   MOCLDY    63  35  35 SW12      29.94S
ALAMOGORDO     PTCLDY    63  36  36 SE6       29.97S
T OR C         PTCLDY    59  23  25 W9        29.96R

$$
NMZ519>523-231000-
CENTRAL VALLEYS/CENTRAL HIGHLANDS

CITY           SKY/WX    TMP DP  RH WIND       PRES   REMARKS
ALBUQUERQUE    MOCLDY    57  30  35 W5        30.00R
DOUBLE EAGLE   MOCLDY    53  32  45 NW7       30.02R
MORIARTY ARPT  FAIR      47  44  87 S7        30.02S
CLINES CORNERS MOCLDY    49  47  93 S7        30.04R
BELEN          FAIR      55  24  30 CALM      30.00R
SOCORRO        FAIR      58  27  31 W7        29.97R

$$
NMZ524>526-539-540-231000-
SOUTHCENTRAL MOUNTAINS

CITY           SKY/WX    TMP DP  RH WIND       PRES   REMARKS
RUIDOSO        CLEAR     48  36  61 SW8       30.09S

$$
NMZ527>531-231000-
NORTHEAST HIGHLANDS/NORTHEAST PLAINS

CITY           SKY/WX    TMP DP  RH WIND       PRES   REMARKS
LAS VEGAS      CLOUDY    52  51  97 S16       30.05R
RATON          CLOUDY    52  51  97 S10       30.02F
CLAYTON        RAIN      56  55  97 S13       30.05R FOG

$$
NMZ532>537-231000-
EASTCENTRAL PLAINS

CITY           SKY/WX    TMP DP  RH WIND       PRES   REMARKS
TUCUMCARI      LGT RAIN  55  49  80 SE9G29    29.94F
CANNON AFB     TSTM      57  55  94 N14       29.98R
CLOVIS AIRPORT CLOUDY    61  59  94 SE17G24   29.93F THUNDER

$$
NMZ028-029-538-231000-
SOUTHEAST PLAINS

CITY           SKY/WX    TMP DP  RH WIND       PRES   REMARKS
ROSWELL        CLOUDY    67  63  87 S10       29.92F
ARTESIA        CLEAR     64  64 100 SE13      29.93S
CARLSBAD       CLOUDY    68  65  90 S5        29.92R FOG
HOBBS          MOCLDY    64  64 100 SE17      29.96F


$$



USA.gov is the U.S. government's official web portal to all federal, state and local government web resources and services.